This is the latest recevied weather packets stored in our database for station/object KC2TER. If no packets are shown the sender has not sent any weather packets the latest 10 day(s).
| Time | Temp. | Humidity | Pressure | Rain* | Wind** | Luminosity | Snow |
|---|---|---|---|---|---|---|---|
| 1777415572 | 13.33° C | 57% | 1018.7 hPa | 0 mm | - | 48 W/m² | - |
| 1777415267 | 13.33° C | 58% | 1018.9 hPa | 0 mm | - | 64 W/m² | - |
| 1777414962 | 13.33° C | 58% | 1018.9 hPa | 0 mm | - | 73 W/m² | - |
| 1777414657 | 13.33° C | 58% | 1019 hPa | 0 mm | - | 64 W/m² | - |
| 1777414352 | 13.33° C | 58% | 1019 hPa | 0 mm | - | 55 W/m² | - |
| 1777414047 | 13.33° C | 58% | 1019.3 hPa | 0 mm | - | 57 W/m² | - |
| 1777413747 | 13.33° C | 57% | 1018.9 hPa | 0 mm | - | 60 W/m² | - |
| 1777413443 | 13.33° C | 59% | 1018.9 hPa | 0 mm | - | 60 W/m² | - |
| 1777413140 | 13.33° C | 59% | 1018.9 hPa | 0 mm | - | 62 W/m² | - |
| 1777412834 | 13.33° C | 59% | 1018.8 hPa | 0 mm | - | 74 W/m² | - |
| 1777412534 | 13.33° C | 58% | 1018.8 hPa | 0 mm | - | 80 W/m² | - |
| 1777412231 | 13.33° C | 59% | 1018.7 hPa | 0 mm | - | 104 W/m² | - |
| 1777411928 | 13.89° C | 59% | 1018.8 hPa | 0 mm | - | 91 W/m² | - |
| 1777411626 | 13.89° C | 60% | 1018.8 hPa | 0 mm | - | 117 W/m² | - |
| 1777411322 | 13.89° C | 59% | 1018.7 hPa | 0 mm | - | 157 W/m² | - |
| 1777411021 | 13.33° C | 59% | 1018.7 hPa | 0 mm | - | 132 W/m² | - |
| 1777410721 | 13.33° C | 59% | 1019 hPa | 0 mm | - | 104 W/m² | - |
| 1777410415 | 13.33° C | 59% | 1019 hPa | 0 mm | - | 89 W/m² | - |
| 1777410114 | 13.33° C | 60% | 1018.9 hPa | 0 mm | - | 85 W/m² | - |
| 1777409809 | 13.33° C | 58% | 1018.9 hPa | 0 mm | - | 84 W/m² | - |
| 1777409505 | 13.33° C | 59% | 1018.9 hPa | 0 mm | - | 88 W/m² | - |
| 1777409201 | 13.33° C | 58% | 1018.9 hPa | 0 mm | - | 102 W/m² | - |
| 1777408897 | 13.33° C | 58% | 1018.9 hPa | 0 mm | - | 77 W/m² | - |
| 1777408594 | 13.89° C | 58% | 1019 hPa | 0 mm | - | 75 W/m² | - |
| 1777408290 | 13.33° C | 58% | 1019 hPa | 0 mm | - | 88 W/m² | - |
* Rain latest hour (hover to see other rain measurements)
** Current wind speed in m/s (hover to see current wind gust speed)